This is the latest recevied weather packets stored in our database for station/object KE4EST. If no packets are shown the sender has not sent any weather packets the latest 10 day(s).
| Time | Temp. | Humidity | Pressure | Rain* | Wind** | Luminosity | Snow |
|---|---|---|---|---|---|---|---|
| 1777700817 | 12.22° C | 74% | 1013.5 hPa | 0 mm | - | 0 W/m² | - |
| 1777700509 | 12.22° C | 74% | 1013.5 hPa | 0 mm | - | 0 W/m² | - |
| 1777700206 | 12.22° C | 74% | 1013.5 hPa | 0 mm | - | 0 W/m² | - |
| 1777699903 | 12.22° C | 75% | 1013.6 hPa | 0 mm | - | 0 W/m² | - |
| 1777699601 | 12.22° C | 74% | 1013.8 hPa | 0 mm | - | 0 W/m² | - |
| 1777699299 | 12.22° C | 74% | 1013.8 hPa | 0 mm | - | 0 W/m² | - |
| 1777698997 | 12.22° C | 74% | 1013.9 hPa | 0 mm | - | 0 W/m² | - |
| 1777698695 | 12.22° C | 75% | 1014.1 hPa | 0 mm | - | 0 W/m² | - |
| 1777698391 | 12.22° C | 74% | 1013.9 hPa | 0 mm | - | 0 W/m² | - |
| 1777698088 | 12.22° C | 76% | 1013.7 hPa | 0 mm | - | 0 W/m² | - |
| 1777697784 | 12.78° C | 74% | 1013.8 hPa | 0 mm | - | 0 W/m² | - |
| 1777697482 | 12.78° C | 73% | 1013.9 hPa | 0 mm | - | 0 W/m² | - |
| 1777697178 | 12.78° C | 74% | 1014.1 hPa | 0 mm | - | 0 W/m² | - |
| 1777696875 | 12.78° C | 73% | 1013.9 hPa | 0 mm | - | 0 W/m² | - |
| 1777696573 | 12.78° C | 73% | 1013.8 hPa | 0 mm | - | 0 W/m² | - |
| 1777696269 | 12.78° C | 73% | 1014.1 hPa | 0 mm | - | 0 W/m² | - |
| 1777695969 | 12.22° C | 75% | 1014.1 hPa | 0 mm | - | 0 W/m² | - |
| 1777695666 | 12.78° C | 77% | 1014.1 hPa | 0 mm | - | 0 W/m² | - |
| 1777695364 | 12.22° C | 76% | 1014.4 hPa | 0 mm | - | 0 W/m² | - |
| 1777695061 | 12.22° C | 77% | 1014.3 hPa | 0 mm | - | 0 W/m² | - |
| 1777694757 | 11.67° C | 78% | 1014.3 hPa | 0 mm | - | 0 W/m² | - |
| 1777694455 | 11.67° C | 80% | 1014.3 hPa | 0 mm | - | 0 W/m² | - |
| 1777694150 | 11.67° C | 83% | 1013.9 hPa | 0 mm | - | 0 W/m² | - |
| 1777693848 | 11.67° C | 81% | 1014.4 hPa | 0 mm | - | 0 W/m² | - |
| 1777693546 | 11.67° C | 82% | 1014.3 hPa | 0 mm | - | 0 W/m² | - |
* Rain latest hour (hover to see other rain measurements)
** Current wind speed in m/s (hover to see current wind gust speed)